TimeHST,TemperatureF,Dew PointF,Humidity,Sea Level PressureIn,VisibilityMPH,Wind Direction,Wind SpeedMPH,Gust SpeedMPH,PrecipitationIn,Events,Conditions,WindDirDegrees,DateUTC
12:54 AM,61.0,57.0,87,30.07,10.0,SSW,3.5,-,N/A,,Clear,210,2012-11-29 10:54:00
1:54 AM,62.1,57.0,84,30.07,10.0,Calm,Calm,-,N/A,,Clear,0,2012-11-29 11:54:00
2:54 AM,61.0,57.0,87,30.06,10.0,Calm,Calm,-,N/A,,Clear,0,2012-11-29 12:54:00
3:54 AM,61.0,57.0,87,30.04,10.0,South,3.5,-,N/A,,Clear,180,2012-11-29 13:54:00
4:54 AM,61.0,57.0,87,30.04,10.0,South,6.9,-,N/A,,Clear,170,2012-11-29 14:54:00
5:54 AM,60.1,55.9,86,30.04,10.0,SSE,3.5,-,N/A,,Clear,160,2012-11-29 15:54:00
6:54 AM,59.0,55.9,90,30.06,10.0,South,4.6,-,N/A,,Clear,180,2012-11-29 16:54:00
7:54 AM,69.1,60.1,73,30.08,10.0,SSE,5.8,-,N/A,,Clear,150,2012-11-29 17:54:00
8:54 AM,75.9,61.0,60,30.08,10.0,Calm,Calm,-,N/A,,Clear,0,2012-11-29 18:54:00
9:54 AM,79.0,62.1,56,30.08,10.0,Variable,5.8,-,N/A,,Smoke,0,2012-11-29 19:54:00
10:54 AM,77.0,60.1,56,30.08,10.0,North,6.9,-,N/A,,Partly Cloudy,360,2012-11-29 20:54:00
11:54 AM,80.1,60.1,50,30.07,10.0,North,8.1,-,0.00,,Scattered Clouds,350,2012-11-29 21:54:00
12:54 PM,81.0,63.0,54,30.04,10.0,North,10.4,-,N/A,,Clear,350,2012-11-29 22:54:00
1:54 PM,80.1,63.0,56,30.01,10.0,North,11.5,-,N/A,,Partly Cloudy,360,2012-11-29 23:54:00
2:54 PM,77.0,64.0,64,30.01,10.0,North,8.1,-,N/A,,Partly Cloudy,10,2012-11-30 00:54:00
3:54 PM,77.0,62.1,60,30.01,10.0,NNE,6.9,-,N/A,,Partly Cloudy,20,2012-11-30 01:54:00
4:54 PM,77.0,63.0,62,30.03,10.0,North,5.8,-,N/A,,Partly Cloudy,350,2012-11-30 02:54:00
5:54 PM,75.9,61.0,60,30.03,10.0,Calm,Calm,-,N/A,,Partly Cloudy,0,2012-11-30 03:54:00
6:54 PM,73.9,62.1,66,30.05,10.0,NW,5.8,-,N/A,,Partly Cloudy,310,2012-11-30 04:54:00
7:54 PM,71.1,63.0,75,30.07,10.0,NW,3.5,-,N/A,,Partly Cloudy,310,2012-11-30 05:54:00
8:54 PM,69.1,61.0,75,30.08,10.0,Calm,Calm,-,N/A,,Clear,0,2012-11-30 06:54:00
9:54 PM,68.0,60.1,76,30.09,10.0,Calm,Calm,-,0.00,,Clear,0,2012-11-30 07:54:00
10:54 PM,69.1,62.1,78,30.09,10.0,SE,4.6,-,N/A,,Clear,140,2012-11-30 08:54:00